Weather History for Newark Heath, OH

Change the Weather History Date:

Monday, November 12, 2012

  Actual Average Record
Temperature  
Mean Temperature 48 °F -  
Max Temperature 63 °F 49 °F 76 °F (1949)
Min Temperature 33 °F 33 °F 14 °F (1957)
Degree Days  
Heating Degree Days 16    
Moisture  
Dew Point 42 °F    
Average Humidity 75    
Maximum Humidity 89    
Minimum Humidity 42    
Precipitation  
Precipitation 0.50 in - - ()
Sea Level Pressure  
Sea Level Pressure 30.15 in    
Wind  
Wind Speed 10 mph (SW)    
Max Wind Speed 20 mph    
Max Gust Speed 29 mph    
Visibility 8 miles    
Events Rain    
Averages and records for this station are not official NWS values.
T = Trace of Precipitation, MM = Missing Value Source: NWS Daily Summary

Daily Weather History Graph

Daily Weather History Graph

Search for Another Location

Airport:

Trip Planner

Search our weather history database for the weather conditions in past years. The results will help you decide how hot, cold, wet, or windy it might be!

Date:

Astronomy

Nov. 12, 2012 Rise Set
Actual Time 7:12 AM EST 5:15 PM EST
Civil Twilight 6:43 AM EST 5:44 PM EST
Nautical Twilight 6:10 AM EST 6:16 PM EST
Astronomical Twilight 5:38 AM EST 6:48 PM EST
Moon 5:36 AM EST (11/12) 4:19 PM EST (11/12)
Length of Visible Light 11h 01m
Length of Day
10h 03m
Waning Crescent, 2% of the Moon is Illuminated
Nov 12
Waning Crescent
Nov 13
New
Nov 20
First Quarter
Nov 28
Full
Dec 6
Last Quarter

Hourly Weather History & Observations

Time (EST) Temp. Windchill Dew Point Humidity Pressure Visibility Wind Dir Wind Speed Gust Speed Precip Events Conditions
12:54 AM 61.0 °F - 37.9 °F 42% 30.12 in 10.0 mi South 8.1 mph - N/A   Clear
1:54 AM 62.1 °F - 41.0 °F 46% 30.13 in 10.0 mi South 9.2 mph 19.6 mph N/A   Clear
2:54 AM 59.0 °F - 42.1 °F 53% 30.14 in 10.0 mi South 5.8 mph - N/A   Clear
3:54 AM 57.9 °F - 43.0 °F 58% 30.11 in 10.0 mi SSE 5.8 mph - N/A   Partly Cloudy
4:54 AM 59.0 °F - 44.1 °F 58% 30.09 in 10.0 mi South 8.1 mph - N/A   Mostly Cloudy
5:54 AM 61.0 °F - 45.0 °F 56% 30.06 in 10.0 mi SSE 10.4 mph - N/A   Clear
6:54 AM 62.1 °F - 46.0 °F 56% 30.06 in 10.0 mi South 8.1 mph - N/A   Mostly Cloudy
7:54 AM 63.0 °F - 46.9 °F 56% 30.08 in 10.0 mi South 13.8 mph 18.4 mph N/A   Overcast
8:54 AM 59.0 °F - 50.0 °F 72% 30.09 in 8.0 mi SSW 6.9 mph - 0.02 in Rain Light Rain
9:54 AM 59.0 °F - 52.0 °F 78% 30.06 in 5.0 mi South 18.4 mph 26.5 mph 0.06 in Rain Rain
10:54 AM 57.9 °F - 53.1 °F 84% 30.06 in 3.0 mi South 13.8 mph 24.2 mph 0.09 in Rain Rain
11:54 AM 59.0 °F - 54.0 °F 83% 30.01 in 6.0 mi South 17.3 mph 28.8 mph 0.08 in Rain Light Rain
12:21 PM 59.0 °F - 53.6 °F 82% 30.03 in 1.8 mi SW 17.3 mph 23.0 mph 0.07 in Rain Rain
12:25 PM 57.2 °F - 53.6 °F 88% 30.03 in 1.5 mi WSW 17.3 mph 27.6 mph 0.08 in Rain Heavy Rain
12:31 PM 55.4 °F - 51.8 °F 88% 30.03 in 3.0 mi West 17.3 mph 27.6 mph 0.08 in Rain Light Rain
12:54 PM 53.1 °F - 50.0 °F 89% 30.04 in 4.0 mi West 11.5 mph 20.7 mph 0.10 in Rain Light Rain
1:54 PM 51.1 °F - 48.0 °F 89% 30.07 in 4.0 mi West 13.8 mph - 0.03 in Rain Light Rain
1:58 PM 51.8 °F - 48.2 °F 88% 30.07 in 4.0 mi West 11.5 mph - 0.00 in Rain Light Rain
2:22 PM 50.0 °F - 46.4 °F 87% 30.07 in 4.0 mi WNW 8.1 mph - 0.03 in Rain Light Rain
2:54 PM 46.9 °F - 43.0 °F 86% 30.11 in 10.0 mi West 17.3 mph 23.0 mph 0.05 in Rain Light Rain
3:54 PM 45.0 °F 38.9 °F 39.9 °F 82% 30.15 in 8.0 mi West 12.7 mph - 0.04 in Rain Light Rain
4:54 PM 42.1 °F 35.2 °F 36.0 °F 79% 30.19 in 10.0 mi West 12.7 mph - 0.03 in Rain Light Rain
5:17 PM 41.0 °F 31.9 °F 35.6 °F 81% 30.21 in 10.0 mi West 19.6 mph 25.3 mph 0.00 in   Overcast
5:39 PM 39.2 °F 30.5 °F 33.8 °F 81% 30.22 in 10.0 mi West 16.1 mph - 0.00 in Rain Light Rain
5:54 PM 39.0 °F 31.0 °F 33.1 °F 79% 30.23 in 10.0 mi West 13.8 mph - 0.00 in Rain Light Rain
6:54 PM 39.0 °F 32.8 °F 33.1 °F 79% 30.26 in 10.0 mi West 9.2 mph - 0.00 in   Overcast
7:44 PM 39.2 °F 32.5 °F 33.8 °F 81% 30.27 in 10.0 mi WSW 10.4 mph - N/A   Scattered Clouds
7:54 PM 37.9 °F 32.7 °F 32.0 °F 79% 30.29 in 10.0 mi WSW 6.9 mph - N/A   Scattered Clouds
8:46 PM 37.4 °F 32.1 °F 30.2 °F 75% 30.30 in 10.0 mi WSW 6.9 mph - N/A   Scattered Clouds
8:54 PM 37.0 °F 32.4 °F 30.9 °F 79% 30.32 in 10.0 mi WSW 5.8 mph - N/A   Scattered Clouds
9:54 PM 36.0 °F 30.3 °F 30.9 °F 82% 30.35 in 10.0 mi SW 6.9 mph - N/A   Mostly Cloudy
10:54 PM 34.0 °F 29.8 °F 30.0 °F 85% 30.37 in 10.0 mi SW 4.6 mph - N/A   Clear
11:54 PM 33.1 °F 28.7 °F 28.0 °F 82% 30.39 in 10.0 mi WSW 4.6 mph - N/A   Clear